Simultaneous Nadir Overpasses (SNOs) Predictions

Prediction of SNOs between AURA and NPP Satellite Orbit:

Table of predicted SNOs for the next 14.0 days since TLE Epoch: 9/14/2024
Index Date (AURA) Time (AURA) Lat,Lon (AURA) SZA (AURA ) Date (NPP) Time (NPP) Lat,Lon (NPP) SZA (NPP ) Distance(km) Time Diff (sec)
1 09/16/2024 07:17:09 -80.80, 162.56 92.89 09/16/2024 07:16:32 -80.80, 162.48 92.86 1.45 37
2 09/16/2024 08:06:29 80.86, -29.00 87.01 09/16/2024 08:07:13 80.86, -29.06 86.99 1.19 44
3 09/18/2024 20:10:47 -80.81, -30.74 91.98 09/18/2024 20:10:22 -80.81, -30.80 91.95 1.15 25
4 09/18/2024 21:00:07 80.87, 137.64 87.93 09/18/2024 21:01:03 80.87, 137.64 87.89 0.12 56
5 09/21/2024 09:04:20 -80.82, 136.07 91.07 09/21/2024 09:04:11 -80.82, 136.08 91.07 0.29 9
6 09/21/2024 09:53:39 80.90, -55.25 88.79 09/21/2024 09:54:51 80.90, -55.13 88.73 2.15 72
7 09/23/2024 21:08:27 80.80, 134.73 89.91 09/23/2024 21:07:16 80.80, 134.90 89.93 3.03 71
8 09/23/2024 21:57:48 -80.84, -57.01 90.18 09/23/2024 21:57:59 -80.85, -56.86 90.21 2.83 11
9 09/26/2024 10:01:50 80.80, -58.60 90.85 09/26/2024 10:01:04 80.80, -58.59 90.87 0.54 46



Historial Predications of SNOs between AURA and NPP
